Theta_e
301 304 304 304 304 303 300 300 300 299 298 299 298 298 298 298 298 298 299 298 295 297 299 298 298 295 291 289 288 288 289 288 288 288 287 287 286 285 284 284 284 284 284 284 284 284 283 283 283 283 283 282 282 282 282 281 281 281 281 281 280 280 280 280 279 279 279 278 278 278 279 279 279 280 281 281 282 282 282 282 283 283 283 283 283 283
302 304 303 302 301 300 299 300 300 299 299 299 299 299 298 298 298 298 299 298 295 296 298 297 297 294 290 289 288 287 288 287 287 287 286 286 286 285 284 284 285 285 285 284 284 284 284 284 283 283 283 282 282 282 281 281 281 281 281 280 280 280 280 279 279 279 278 278 278 278 277 277 278 278 278 279 280 281 281 282 282 282 283 283 283 283
306 303 301 299 296 296 299 301 301 299 299 299 298 299 299 298 298 298 299 298 296 296 297 297 296 294 290 289 288 287 287 287 286 286 286 286 285 285 285 285 285 285 285 284 284 284 284 284 283 283 282 282 282 281 281 281 281 280 280 280 280 279 279 279 279 279 278 278 278 277 277 277 277 277 277 277 278 279 280 281 281 282 282 283 283 283
305 302 300 296 294 298 301 300 299 299 299 299 299 299 300 298 297 297 297 297 296 296 297 296 296 294 289 289 289 287 287 287 286 286 285 285 285 284 285 285 285 285 285 284 284 284 284 283 283 283 282 282 282 281 281 281 281 280 280 280 279 279 279 279 279 278 278 278 278 277 277 277 277 277 277 277 277 277 278 279 280 280 281 282 283 283
303 299 298 296 296 300 300 299 299 299 299 298 299 300 299 297 296 296 296 295 296 296 296 295 296 295 290 289 289 287 287 286 286 285 285 284 285 285 285 285 285 285 284 284 284 284 284 283 283 282 282 282 281 281 281 281 280 280 280 280 279 279 279 279 279 278 278 278 278 277 277 277 277 277 277 277 277 277 277 277 278 278 279 281 282 283
301 297 297 299 301 302 301 301 298 298 299 298 299 299 297 296 295 295 295 295 295 296 296 294 296 296 291 290 289 287 287 286 285 285 284 284 285 285 285 285 285 284 284 284 284 284 284 283 283 282 282 282 281 281 281 281 280 280 280 279 279 279 279 279 279 279 278 278 278 277 277 277 277 277 277 277 277 277 277 277 277 277 277 278 280 281
300 298 297 300 303 303 302 300 298 297 299 299 299 297 296 295 295 295 295 295 296 296 295 294 295 295 294 294 291 288 287 285 285 285 284 284 285 285 285 285 285 284 284 284 284 284 283 283 282 282 282 281 281 281 281 280 280 280 280 279 279 279 279 279 279 279 278 278 278 277 277 277 277 277 277 276 276 276 276 276 276 277 277 277 278 279
301 301 300 301 304 303 301 300 298 297 298 299 298 296 296 296 296 296 295 295 296 295 295 294 294 295 296 295 291 287 287 286 284 284 284 284 285 285 285 285 285 285 284 284 284 283 283 283 282 282 282 281 281 281 280 280 280 280 279 279 279 279 279 279 279 279 278 278 278 277 277 277 277 276 276 276 276 276 276 276 276 276 277 277 277 278
299 301 300 301 304 302 301 301 299 297 297 298 297 295 296 296 296 295 295 295 294 294 295 295 293 295 295 293 289 288 288 286 285 284 285 286 286 286 286 286 285 285 284 284 283 283 283 283 282 282 282 281 281 281 280 280 280 280 279 279 279 279 279 279 279 279 278 278 278 278 277 277 277 276 276 276 276 276 275 275 275 275 275 276 276 277
297 298 297 299 302 301 301 300 298 298 298 297 296 295 296 297 297 295 295 296 297 296 296 294 293 293 294 291 288 287 286 285 285 286 286 287 286 286 286 285 285 284 284 283 283 283 283 282 282 281 281 281 281 280 280 280 280 280 280 279 279 279 279 279 279 278 278 278 278 277 277 277 277 276 276 276 276 276 275 275 275 274 274 275 275 276
297 298 298 299 300 299 299 299 297 297 296 295 296 296 296 297 297 297 298 297 298 298 297 295 293 293 293 289 285 285 285 285 286 286 287 287 286 286 285 285 284 284 284 283 283 282 282 282 281 281 280 280 280 280 280 280 280 280 280 279 279 279 279 279 278 278 278 278 277 277 277 277 277 276 276 276 276 275 275 274 274 273 274 274 275 276
301 301 299 298 298 297 298 298 297 296 294 295 296 295 295 296 295 297 299 297 296 297 297 294 293 293 294 289 284 284 285 285 286 286 286 287 286 285 284 284 284 283 283 282 282 282 281 280 280 280 280 280 280 280 280 279 279 279 279 279 279 279 279 278 278 278 278 277 277 277 277 276 276 276 275 275 275 275 274 274 273 272 273 274 275 277
306 303 297 296 297 296 297 297 296 296 295 295 296 295 295 295 295 295 296 296 296 296 295 294 293 293 292 287 284 284 285 285 286 286 286 286 285 284 283 283 282 282 282 281 281 280 279 279 279 280 280 279 279 279 279 279 279 279 279 279 279 278 278 278 278 278 277 277 276 276 276 275 275 275 275 274 274 273 273 272 272 272 273 274 274 276
305 303 298 298 298 296 296 296 296 296 296 295 296 296 295 294 295 295 295 295 295 295 294 293 292 294 292 286 284 285 285 285 285 286 285 284 284 283 282 282 281 281 281 280 279 279 279 279 279 279 279 278 278 278 278 278 278 278 278 278 278 278 278 278 278 277 277 276 276 275 275 275 274 274 273 273 272 272 271 271 271 272 273 273 274 274
302 302 300 299 297 297 297 295 295 296 295 295 295 296 295 294 294 295 295 294 293 293 294 293 293 294 292 287 285 285 285 285 285 285 284 283 282 282 281 281 281 281 280 279 278 279 279 279 278 278 278 278 278 277 278 278 277 277 277 277 277 277 277 277 277 277 276 275 275 274 274 274 273 272 272 271 271 271 270 270 270 271 272 273 273 273
300 301 300 297 296 297 297 295 294 295 295 296 295 295 295 294 294 295 294 293 293 293 293 294 294 293 289 285 284 284 285 286 285 284 283 282 281 281 281 281 281 280 278 278 278 278 278 278 278 278 277 276 276 276 276 276 275 275 275 276 276 276 277 277 276 275 275 274 274 273 273 272 272 271 271 270 270 269 269 269 269 270 271 272 272 272
299 301 300 298 296 297 296 295 294 294 296 296 295 294 294 293 293 294 293 292 293 293 293 293 293 290 288 285 285 285 286 286 284 283 282 281 281 280 280 281 280 278 277 278 278 277 277 277 277 276 275 275 274 273 273 273 273 273 274 274 275 276 276 275 275 274 273 273 272 272 271 271 270 270 269 269 269 269 269 269 270 270 270 271 271 271
298 299 298 297 298 297 295 294 294 293 295 296 295 293 293 292 293 292 292 292 292 291 292 292 291 289 288 287 286 286 286 284 283 282 281 281 281 280 280 280 278 277 277 278 277 277 277 276 275 274 274 273 272 272 272 272 272 273 273 274 275 274 273 273 272 272 271 271 271 270 270 270 269 269 268 268 268 269 269 270 270 270 270 270 270 270
296 299 298 296 297 297 295 295 295 294 293 294 294 292 292 294 294 291 290 291 292 291 290 290 290 289 289 288 287 285 284 283 282 281 281 280 280 280 280 279 277 277 277 277 276 276 275 274 273 272 272 271 271 271 271 271 271 271 272 273 272 272 271 271 271 270 270 270 270 269 269 268 268 268 268 268 268 269 269 269 269 269 269 269 269 269
295 299 300 297 295 296 296 296 296 295 293 292 291 290 291 292 292 290 289 290 291 290 290 290 289 288 288 287 286 284 283 282 281 280 280 280 280 279 279 277 276 277 276 275 276 275 274 273 272 271 271 270 270 270 270 269 269 270 270 270 270 270 270 270 270 269 269 269 269 268 268 268 268 268 268 268 268 268 268 268 268 268 268 268 268 268
295 297 299 298 296 296 297 296 294 294 293 293 292 289 289 290 291 290 290 290 290 289 289 288 287 287 288 286 285 284 282 281 281 280 280 280 279 279 278 276 276 277 275 275 275 274 273 272 271 270 270 269 269 269 268 268 268 268 268 268 268 269 269 269 269 268 268 268 268 267 267 267 267 268 267 267 267 267 267 267 267 267 267 267 267 268
296 297 297 297 296 296 296 295 293 292 291 291 291 289 288 288 289 290 289 289 289 288 287 286 286 287 288 286 284 283 282 281 281 280 280 279 278 277 276 275 276 276 274 274 273 273 272 271 270 270 269 268 268 268 267 267 267 267 267 268 268 268 268 267 267 267 267 267 267 267 267 267 267 267 267 267 266 266 266 266 266 266 266 266 266 267
294 296 296 297 296 296 295 292 291 290 288 289 288 287 288 288 288 289 288 289 288 287 287 287 287 288 287 286 284 283 282 281 281 280 279 278 277 276 275 275 276 275 273 272 272 271 271 270 269 268 268 267 267 267 267 267 267 267 267 267 267 267 266 266 266 266 267 267 267 267 267 267 267 267 266 266 266 266 266 266 266 266 266 266 266 266
294 296 296 296 296 296 294 290 289 289 290 291 288 285 287 288 288 287 286 286 287 287 287 286 287 287 286 285 283 282 282 280 280 279 278 277 276 275 275 275 275 273 272 271 271 271 270 269 268 267 267 267 266 266 266 266 267 267 266 266 266 266 266 266 266 266 266 266 266 267 267 266 266 266 266 266 266 266 266 266 266 266 266 266 266 266
295 297 297 296 296 296 295 293 292 292 293 291 287 285 286 286 286 286 285 285 286 286 286 286 285 285 285 285 283 282 281 280 279 278 277 276 275 274 275 275 273 272 271 270 270 270 269 268 267 266 266 266 265 265 265 265 265 265 265 265 265 265 265 265 265 266 266 266 266 266 266 266 266 266 266 266 266 266 266 266 266 266 266 266 266 267
295 296 297 298 297 296 296 296 295 294 293 290 287 285 286 286 285 286 287 286 286 286 286 285 284 284 284 284 282 281 280 279 278 277 276 275 274 274 274 273 272 271 270 270 269 269 268 267 266 266 266 265 264 264 264 264 264 265 265 264 264 264 265 265 265 265 265 265 265 266 266 266 266 266 266 266 266 266 266 266 266 266 266 266 266 267
294 294 296 298 297 296 295 295 294 293 293 291 288 286 286 286 285 286 287 286 285 285 285 285 284 284 283 282 281 280 279 278 277 276 275 274 273 274 273 272 271 271 270 269 269 268 266 265 265 265 265 264 263 263 263 263 264 264 264 264 264 264 264 264 265 265 265 265 265 265 265 266 266 266 266 266 266 266 266 266 266 266 266 267 266 267
296 295 295 296 296 295 294 293 292 292 291 290 288 286 285 285 285 285 285 285 285 284 284 284 284 282 281 281 281 280 278 277 276 275 274 274 273 273 272 271 271 270 269 269 268 266 265 265 264 264 264 263 263 262 262 263 263 263 263 263 264 264 264 264 264 264 264 265 265 265 265 265 265 265 266 266 266 266 266 266 266 266 266 266 266 267
296 297 294 292 294 293 292 291 291 291 290 289 287 286 285 285 285 285 285 285 285 284 283 284 283 281 281 280 280 279 277 276 275 274 273 273 273 272 271 271 270 269 269 268 266 265 264 264 264 263 263 262 262 262 262 262 262 263 263 263 263 263 264 264 264 264 264 264 264 265 265 265 265 265 265 265 266 266 266 266 266 266 266 267 267 267
293 298 295 292 293 292 291 292 290 290 291 289 287 285 285 285 285 285 285 285 284 284 284 282 281 280 280 280 279 278 277 275 275 274 273 272 272 271 270 270 269 268 268 267 265 265 264 263 263 262 262 262 262 262 262 262 262 262 262 263 263 263 263 263 263 264 264 264 264 264 265 265 265 265 265 266 266 266 266 266 267 267 267 267 268 268
291 296 294 291 291 292 292 293 291 290 291 289 286 285 284 284 285 284 284 284 284 283 282 280 280 280 280 280 278 277 276 275 274 273 272 272 272 271 270 269 269 268 267 266 265 264 263 263 262 262 262 261 261 261 261 261 262 262 262 262 263 263 263 263 263 263 264 264 264 265 265 265 265 265 266 266 267 267 267 267 267 268 268 268 269 269
293 294 292 290 292 294 294 292 291 289 287 287 286 285 284 284 285 284 284 284 283 282 281 280 279 280 279 279 277 276 275 274 273 272 272 271 271 270 270 269 268 267 266 265 264 263 262 262 262 261 261 261 261 261 261 261 261 262 262 262 262 263 263 263 263 264 264 265 265 265 265 265 266 266 267 268 268 268 268 268 269 269 269 269 270 270
292 293 293 291 292 295 293 290 289 288 289 291 289 285 284 285 284 284 285 284 282 282 280 279 279 279 279 277 276 275 274 273 272 271 271 271 270 270 269 268 267 267 265 264 263 262 262 261 261 261 261 261 261 261 261 261 261 261 262 262 262 263 263 263 264 264 265 266 266 266 266 266 267 267 268 268 269 269 269 270 270 270 270 270 271 271
291 292 292 290 292 295 292 289 290 293 296 294 288 283 284 285 284 284 284 283 282 281 280 280 279 279 277 276 275 274 273 272 271 271 271 271 270 269 269 268 267 266 265 263 263 262 261 261 261 261 261 260 261 261 261 261 261 261 261 262 262 263 263 264 264 265 265 266 267 267 267 267 267 268 269 269 270 270 271 271 271 271 271 272 272 273
294 293 289 287 290 293 290 290 295 299 297 290 285 284 285 284 284 284 284 283 281 280 279 279 278 277 276 275 274 273 272 271 270 271 271 271 270 269 268 267 266 265 264 263 262 261 261 261 260 260 260 260 261 261 261 262 262 261 261 262 262 263 263 264 264 265 266 267 267 268 267 267 268 269 270 270 271 272 272 272 272 273 273 274 274 275
294 294 291 289 291 292 290 291 296 297 292 286 285 285 285 284 284 283 283 283 281 279 279 278 277 276 275 274 273 271 270 270 271 272 271 271 270 268 267 266 265 264 263 262 261 261 260 260 260 260 260 260 261 261 261 262 262 261 261 262 262 263 264 264 265 266 267 268 268 268 268 269 269 270 271 271 272 273 273 273 273 273 274 275 276 276
291 293 293 291 291 291 291 291 292 293 291 288 288 287 284 284 284 283 283 282 280 280 279 277 276 276 274 273 272 270 269 270 272 272 272 270 269 268 267 266 265 264 263 262 261 261 261 260 260 260 260 260 261 261 262 262 262 261 261 262 263 263 264 264 265 266 267 268 269 269 270 270 270 271 272 272 273 273 274 274 274 274 275 276 276 277
286 290 293 292 291 291 291 292 292 294 296 293 289 286 284 284 283 281 282 282 280 280 279 276 275 274 273 272 271 270 269 271 272 273 271 270 269 268 267 266 264 264 263 261 261 261 261 260 260 260 261 261 261 262 262 262 261 260 261 262 262 263 264 265 266 266 267 268 269 269 270 270 271 272 272 273 274 274 274 274 275 275 275 276 277 278
286 288 291 293 293 291 291 293 294 296 297 292 287 285 284 284 282 280 281 283 282 280 279 276 274 274 273 271 270 269 269 270 271 271 271 269 268 268 267 265 264 264 263 262 261 261 260 260 260 261 261 261 261 262 262 261 261 260 261 262 262 263 264 265 266 266 267 268 269 270 270 271 271 272 273 273 274 275 275 275 275 275 276 277 277 278
292 291 291 293 294 290 290 292 293 294 293 289 285 285 284 283 282 281 284 285 282 280 279 276 274 273 272 271 270 269 269 269 270 270 269 268 267 267 266 264 264 263 263 262 262 261 260 260 260 261 261 261 261 262 262 261 260 260 261 262 262 262 263 264 265 266 267 268 269 270 270 271 272 272 273 273 274 275 275 275 275 276 276 277 278 278
294 292 290 291 291 290 290 291 291 292 292 288 285 285 284 284 284 283 284 283 281 280 278 276 273 272 271 270 269 269 269 269 269 268 268 267 267 267 266 265 264 264 263 262 262 261 261 261 260 261 261 261 261 262 262 261 260 261 261 262 262 263 264 265 266 266 267 268 269 270 271 271 272 273 273 273 274 275 275 276 276 276 276 277 278 279
295 293 291 291 291 290 289 289 291 292 290 285 285 284 284 285 286 285 283 282 281 279 277 275 273 272 270 269 269 268 268 268 268 267 267 267 266 267 266 265 264 264 264 263 262 261 261 261 261 261 262 262 262 262 261 260 260 261 262 262 263 263 264 266 266 267 268 269 270 271 272 272 272 273 273 274 274 275 275 276 276 276 277 278 278 278
294 294 294 292 291 290 289 290 294 296 289 284 285 286 284 285 286 283 282 281 280 278 275 274 272 271 270 269 268 268 268 268 268 267 267 267 267 266 266 266 265 264 264 263 262 261 260 260 261 261 262 262 261 262 261 261 261 261 262 262 263 264 265 266 267 268 268 269 270 271 272 273 273 273 273 274 274 275 275 276 276 277 277 278 278 278
291 294 297 294 290 291 294 296 297 295 289 285 286 287 284 284 284 281 280 279 278 277 274 273 272 270 269 268 268 268 269 268 268 267 266 266 267 266 266 266 265 265 265 264 263 262 261 260 261 261 262 262 262 262 261 261 261 261 262 263 263 264 265 267 268 268 269 270 270 271 272 273 274 273 273 274 274 275 275 276 276 277 277 278 278 278
293 293 294 294 291 291 293 295 293 290 288 287 286 286 284 283 282 281 280 279 277 276 274 272 272 270 269 269 268 269 269 269 268 268 267 266 267 266 266 266 266 266 265 264 264 263 261 261 261 261 262 263 262 262 262 261 261 261 262 263 264 264 265 266 268 269 269 270 271 271 272 273 274 274 273 274 274 275 275 276 276 277 277 277 277 277
290 289 289 290 290 289 289 290 289 288 288 287 286 285 284 283 282 281 280 278 276 275 274 273 272 271 270 269 269 269 269 269 268 268 268 267 267 267 266 267 266 266 266 265 264 263 262 262 261 262 263 264 263 263 262 262 261 262 262 263 264 265 265 266 268 269 270 270 271 272 272 273 274 274 274 274 274 275 275 275 276 276 277 277 277 277
286 286 288 288 289 289 290 289 287 287 288 287 285 285 284 283 282 281 280 278 276 275 274 273 272 271 270 270 270 270 270 269 268 268 268 268 267 267 267 267 267 266 266 265 265 264 263 262 262 262 263 263 264 264 263 263 262 262 263 263 264 265 266 267 268 269 270 271 271 271 272 273 274 275 275 275 275 275 275 275 275 276 276 276 276 276
289 287 288 288 288 288 290 289 287 287 288 286 285 285 283 282 282 280 279 277 276 275 274 273 272 272 271 271 270 270 270 269 268 268 268 268 268 267 267 268 268 267 266 266 265 265 264 263 262 263 263 263 263 263 263 263 263 263 263 264 264 265 266 267 268 269 270 270 271 271 272 272 273 274 275 276 276 275 275 275 275 275 275 276 276 275
288 288 288 288 287 287 288 288 287 287 288 286 285 284 283 282 281 279 278 277 276 275 274 273 273 272 271 271 270 269 270 269 268 268 268 268 268 268 268 269 269 268 267 267 266 265 264 263 263 263 263 263 263 263 263 263 263 263 264 264 265 265 266 268 269 270 270 270 271 271 272 272 272 273 274 275 276 276 275 274 274 274 275 276 276 275
288 290 288 288 290 291 290 289 287 288 288 286 285 284 283 281 280 279 277 277 276 275 275 274 274 273 271 271 270 269 269 269 269 268 269 268 268 268 269 269 269 269 268 268 267 267 266 265 264 264 264 264 263 263 263 263 263 264 264 264 265 265 266 267 269 270 270 271 271 271 271 272 272 273 273 274 275 277 277 276 276 275 275 275 276 276
291 292 290 291 295 294 291 289 288 287 287 286 285 283 282 281 280 278 277 276 276 275 275 274 274 273 272 271 270 269 269 269 269 269 269 269 269 269 269 269 269 269 269 268 268 268 267 267 266 266 266 265 264 263 263 263 263 264 264 265 265 266 266 267 267 268 269 270 271 271 271 272 272 272 273 274 274 275 276 277 277 277 276 276 275 276
Wind_Speed
8 7 6 4 5 6 6 2 2 2 1 4 6 4 6 8 7 7 7 4 5 4 7 7 3 2 4 4 4 4 10 13 14 14 14 16 18 18 17 16 15 16 16 17 17 18 21 23 25 26 27 29 30 30 32 32 33 32 32 32 32 32 31 31 30 29 28 27 27 27 26 26 27 27 27 27 25 24 22 21 20 21 21 20 19 19
6 8 5 5 5 5 4 1 1 1 1 3 5 6 6 6 9 8 3 3 5 7 10 9 4 2 2 3 2 5 7 7 10 12 13 16 17 17 16 15 14 15 16 17 17 18 21 24 26 27 28 29 30 30 32 31 30 29 29 29 29 29 30 30 30 30 29 28 26 25 25 25 25 25 26 26 26 26 25 24 23 23 23 23 22 21
6 6 6 6 4 2 2 3 3 4 3 4 5 5 6 7 10 9 2 3 4 5 9 8 5 2 1 1 2 4 5 6 9 11 13 16 17 16 14 14 15 16 16 16 17 18 23 26 27 27 28 28 29 30 31 30 28 28 27 27 27 27 27 28 30 31 31 29 26 23 22 23 24 24 24 25 25 25 26 26 25 25 26 26 26 24
5 3 7 5 2 3 2 4 5 5 3 4 6 5 7 9 9 9 9 9 7 4 6 6 5 1 0 1 1 3 4 8 12 15 17 17 17 15 13 14 16 16 16 17 17 20 25 27 27 27 27 27 28 29 30 30 29 29 28 27 26 25 26 27 29 31 31 29 25 22 21 21 22 22 22 23 23 24 25 26 27 27 27 28 29 28
2 4 7 5 3 5 4 6 7 7 5 4 5 3 7 11 10 10 13 12 9 4 1 5 5 1 1 1 1 2 6 10 14 18 19 18 16 14 15 15 16 16 17 18 19 22 25 26 26 26 26 26 27 28 30 31 30 29 27 27 26 26 25 26 29 31 31 30 27 25 24 23 23 23 24 25 26 26 26 27 27 28 29 30 30 30
1 3 7 6 5 8 7 6 6 6 7 6 4 3 6 12 13 15 13 9 7 3 2 4 5 3 0 2 3 2 5 9 13 17 17 15 14 16 17 16 17 18 19 21 22 25 26 26 27 26 26 26 26 29 30 30 30 28 27 26 25 26 26 26 29 31 32 32 30 29 29 28 28 29 30 32 33 33 33 31 30 30 30 31 32 32
1 5 6 5 4 8 7 4 4 4 6 7 3 1 7 11 13 15 12 6 4 4 3 3 1 3 2 2 5 3 8 8 10 13 13 12 14 16 18 19 20 20 23 25 26 28 28 28 28 28 29 28 28 30 30 30 30 29 27 26 26 27 27 28 29 31 32 32 32 31 31 30 30 31 33 34 36 37 37 36 34 32 31 30 32 34
3 8 9 6 6 7 6 5 5 4 5 7 6 7 12 13 13 14 8 2 2 5 4 2 1 3 4 3 1 6 9 8 8 8 7 9 15 17 19 22 22 23 25 27 29 30 30 30 31 32 32 32 31 31 31 32 33 31 29 27 27 29 29 29 30 30 32 32 32 32 31 31 31 31 33 35 37 38 40 40 38 37 34 30 29 31
2 6 6 4 6 6 4 6 6 4 3 6 8 9 12 12 9 9 4 1 2 3 5 4 2 3 6 4 6 8 9 8 7 5 6 11 16 18 21 23 23 24 26 28 30 31 31 32 34 35 36 36 35 35 35 35 36 35 32 30 30 31 31 31 30 30 32 33 33 33 32 32 32 33 34 36 38 40 42 43 42 42 38 32 29 29
2 2 2 2 4 3 4 7 7 5 5 9 10 9 10 8 4 2 2 1 2 4 5 5 4 5 7 4 6 6 8 7 3 2 6 12 16 16 20 23 23 24 28 30 32 32 33 34 35 36 37 38 38 37 37 36 36 36 35 34 33 32 33 32 29 29 31 32 32 32 32 32 33 34 35 37 40 42 43 44 45 44 36 31 29 27
4 1 0 3 3 1 6 7 5 3 8 12 9 9 10 7 3 2 2 1 4 4 5 5 7 9 6 3 4 3 3 2 2 2 7 12 14 15 19 23 24 26 30 34 36 34 33 34 36 38 40 39 38 36 35 36 36 36 36 36 35 34 35 32 27 28 30 29 29 29 30 31 32 34 35 38 41 44 46 45 45 41 30 27 26 23
7 2 1 0 1 2 3 4 3 4 7 8 6 9 10 8 4 2 2 3 3 4 5 8 13 11 5 1 3 2 4 5 2 4 8 11 13 17 25 28 29 32 36 38 35 33 36 41 43 42 40 37 35 35 35 36 36 35 36 36 36 36 34 29 26 28 28 26 26 27 28 29 31 32 35 38 41 45 46 46 45 37 26 23 23 20
5 1 3 1 1 6 7 5 6 5 7 7 6 8 8 8 6 4 5 5 5 6 8 13 12 5 2 1 4 5 5 5 4 5 9 13 16 24 32 34 36 40 38 35 34 39 46 46 42 37 35 35 35 35 36 36 36 35 35 35 36 34 29 26 28 29 27 25 25 26 27 28 30 32 35 38 42 44 45 44 41 31 24 23 22 21
3 3 6 3 1 9 11 6 6 5 6 7 5 5 6 7 7 8 7 6 8 10 11 11 5 2 3 2 6 5 5 4 5 8 13 17 23 31 36 38 42 39 32 35 43 47 45 38 35 35 35 35 34 35 34 33 32 31 30 29 30 28 25 27 29 27 23 23 23 24 26 28 31 35 38 41 43 44 44 41 34 27 25 23 21 24
4 4 5 4 3 7 9 4 3 3 3 3 0 3 5 5 4 6 6 6 10 11 10 7 1 3 7 1 6 6 4 4 9 14 19 26 32 37 38 40 40 32 33 44 48 42 35 34 35 34 32 33 33 34 33 31 31 31 30 29 28 28 29 30 27 22 19 20 22 25 29 32 35 37 40 42 43 43 42 38 30 25 24 23 23 26
1 5 5 3 3 2 7 6 2 1 2 1 1 2 5 7 4 4 6 8 10 10 8 3 1 3 3 2 5 6 5 8 16 21 26 34 39 40 40 39 32 30 41 48 40 32 33 34 33 29 30 32 34 35 35 35 36 37 35 33 33 31 28 24 20 19 20 24 28 31 34 37 38 40 41 43 44 40 35 31 26 23 25 28 28 25
2 5 7 7 4 2 7 10 4 4 4 2 3 3 5 6 0 2 9 10 9 9 5 2 5 4 2 1 3 4 7 11 16 21 27 34 38 40 41 35 30 37 46 39 31 31 33 31 29 29 33 36 38 41 42 42 42 40 38 34 32 28 23 21 21 24 28 32 35 37 38 40 41 43 43 41 37 32 26 22 19 18 20 23 22 20
0 5 7 4 2 2 8 9 4 6 4 3 5 6 6 2 4 2 7 8 8 9 4 4 9 7 4 3 3 7 12 12 13 18 25 31 35 39 37 30 36 46 41 30 30 32 30 30 33 38 42 42 43 44 42 40 37 34 33 28 24 23 23 25 28 31 34 37 38 40 42 43 43 40 36 31 27 23 21 18 15 16 18 19 19 19
2 4 6 0 2 8 9 6 3 4 6 5 2 5 4 3 3 3 2 5 10 11 8 8 10 7 5 4 7 12 14 13 14 16 21 25 32 38 31 28 40 43 32 29 31 30 31 38 45 48 46 42 40 36 32 33 34 31 31 28 25 27 31 32 34 36 38 39 40 42 42 40 35 31 27 23 22 21 19 17 16 20 24 25 24 24
1 1 4 3 3 8 6 3 2 4 4 4 3 3 3 1 2 2 1 2 6 7 10 12 11 6 3 3 8 13 12 14 17 17 18 24 34 35 26 29 38 31 25 29 29 31 40 46 47 43 38 37 36 31 30 34 34 32 34 33 31 33 37 37 36 36 37 39 40 40 37 31 27 24 22 21 21 20 20 20 19 21 23 25 26 27
1 1 3 5 4 5 3 2 2 3 3 4 4 5 5 3 2 5 1 2 1 4 8 9 9 6 2 2 8 13 12 14 18 20 21 27 36 34 28 34 32 21 24 30 29 36 42 40 38 35 32 36 36 32 34 35 33 32 34 34 31 30 32 32 33 35 36 36 35 32 28 26 23 21 20 21 22 22 22 23 23 23 25 27 27 28
0 1 3 6 5 3 2 1 1 5 6 5 4 3 4 4 5 6 4 1 1 2 3 4 8 8 2 3 8 12 12 16 24 27 26 30 36 35 33 34 26 19 27 30 32 39 38 32 33 33 34 39 38 36 36 34 31 30 30 29 28 28 29 33 37 38 35 31 27 25 24 23 21 20 20 21 22 23 23 25 27 27 27 27 27 26
2 2 1 4 5 5 3 0 4 10 12 8 5 3 1 2 4 3 4 6 3 3 4 5 9 6 1 7 12 14 16 24 31 31 30 33 36 35 35 30 21 21 28 32 36 38 33 29 31 35 40 41 37 35 34 32 29 27 27 28 29 30 33 36 36 33 30 26 25 24 24 23 21 20 20 21 21 22 23 24 26 25 24 24 23 22
1 2 2 4 5 4 1 2 3 6 6 7 5 3 2 2 1 3 4 5 3 3 6 7 9 6 5 12 18 19 24 31 32 30 32 36 36 35 31 25 22 25 31 39 40 31 27 29 34 40 43 38 34 33 34 33 30 29 31 32 32 32 32 32 30 27 28 28 26 26 25 24 23 21 20 21 21 22 22 23 24 23 22 22 20 19
2 1 4 6 6 5 4 4 3 2 4 4 2 2 3 2 3 3 2 1 1 4 8 8 9 9 9 14 18 19 24 29 31 33 33 32 35 34 26 22 26 29 33 41 38 27 27 36 42 41 35 32 34 36 36 36 34 32 31 31 33 32 29 30 29 28 28 28 27 27 26 25 24 22 21 23 24 25 25 25 25 24 23 21 19 18
1 1 2 3 4 7 6 6 8 8 6 2 2 3 4 5 6 4 3 4 5 7 8 6 9 14 14 14 14 16 19 23 30 38 35 31 33 29 22 25 29 30 35 38 31 26 32 44 47 39 30 32 37 38 37 36 33 31 30 30 32 31 30 31 30 28 29 28 28 28 27 26 25 25 25 25 26 26 26 26 25 24 23 21 20 20
3 1 1 5 4 5 7 10 11 9 8 5 2 4 5 5 4 3 4 6 8 10 8 5 9 18 19 15 13 16 18 19 26 36 37 35 34 24 20 26 28 29 36 34 27 30 39 45 42 33 30 36 39 38 36 33 31 31 32 33 32 31 31 31 29 29 29 28 28 28 27 27 27 27 27 27 27 26 26 25 24 24 23 22 23 23
4 2 2 5 7 9 9 13 13 10 8 5 2 2 4 5 3 3 3 5 7 10 11 11 13 17 17 14 14 17 18 18 26 33 35 36 32 23 22 26 27 33 36 29 27 36 41 41 35 30 34 41 40 38 35 32 31 32 33 34 32 31 32 31 30 30 29 29 29 28 28 28 28 28 28 27 27 27 26 26 25 24 23 23 24 24
4 1 3 4 6 10 10 13 12 8 6 1 2 1 5 6 6 5 5 7 6 6 12 17 17 15 15 13 13 17 20 22 27 30 32 32 27 22 25 26 28 36 35 27 30 37 38 36 33 33 39 42 40 38 35 33 33 34 34 34 33 32 33 32 32 31 31 31 30 29 29 29 29 29 29 29 28 27 27 26 25 24 23 22 22 22
3 2 3 2 6 11 11 11 8 5 3 1 2 2 4 5 6 6 6 7 8 10 13 15 15 13 11 11 15 24 30 30 30 30 30 29 24 21 26 29 32 37 32 28 34 37 36 34 32 36 43 42 39 37 36 35 35 34 35 35 34 34 34 34 34 33 32 33 32 33 32 31 32 32 32 31 30 29 28 27 26 25 23 22 21 20
2 2 2 1 3 9 9 8 6 4 4 3 2 3 4 5 6 5 5 7 9 11 11 11 13 12 10 15 23 31 35 34 33 33 32 28 23 23 28 32 36 36 31 31 36 35 34 33 32 38 45 42 38 37 36 36 35 34 34 35 36 36 35 35 35 34 34 35 35 36 35 35 35 34 33 32 30 30 29 28 27 25 23 22 21 19
3 2 2 4 3 7 4 5 10 4 5 5 3 4 4 6 6 5 5 6 7 8 8 9 10 9 12 20 26 29 33 33 31 34 33 26 22 26 31 33 34 33 32 34 36 34 35 34 33 40 45 41 38 38 37 36 35 34 35 36 37 37 36 36 36 35 37 37 37 37 36 36 37 35 34 33 32 31 30 28 26 25 23 22 21 19
3 0 2 3 2 6 4 9 15 7 5 2 3 3 2 7 10 9 9 9 4 1 1 3 5 8 15 22 21 21 26 28 28 33 30 22 24 29 30 31 31 31 34 37 35 33 35 34 33 39 42 39 38 38 37 36 35 34 34 36 37 37 37 37 37 38 38 38 38 38 37 37 37 36 35 33 32 31 29 27 26 24 23 22 20 18
3 2 0 1 1 6 9 11 10 4 5 3 3 5 2 8 9 11 15 11 1 4 1 4 6 8 12 15 16 19 22 23 30 34 23 18 29 32 28 29 29 30 35 38 35 33 35 35 35 38 40 38 38 38 37 35 34 33 34 35 37 38 37 38 39 39 39 39 39 38 38 38 37 36 34 32 31 30 28 27 26 23 22 21 20 18
1 1 1 1 2 4 8 9 8 5 2 2 5 4 4 6 7 10 13 4 5 1 6 9 10 9 10 13 16 21 24 27 33 28 12 14 30 31 28 31 31 31 37 37 33 35 37 36 36 38 39 38 38 38 36 35 34 34 35 36 38 38 38 39 40 40 39 39 39 38 38 38 37 35 34 33 32 30 29 27 26 24 23 21 19 18
2 2 1 1 1 2 4 5 4 4 1 1 2 2 6 7 7 12 13 2 5 3 9 11 12 12 15 15 14 20 29 31 27 14 6 17 32 30 28 31 30 34 39 36 32 35 37 35 35 37 38 37 38 37 36 34 34 35 36 37 38 38 38 39 40 40 39 39 38 37 36 36 36 34 33 33 32 31 29 27 26 25 24 22 19 17
4 3 1 1 1 2 2 2 3 4 3 2 2 3 3 5 6 7 8 4 1 4 9 10 11 16 22 21 19 26 33 28 13 3 6 25 34 29 28 31 32 36 39 34 32 35 34 33 34 36 36 37 37 36 34 34 34 35 37 38 39 38 39 40 39 39 38 37 37 36 34 34 34 33 32 32 31 31 29 28 27 25 24 22 20 17
4 2 1 1 1 2 2 3 3 5 4 3 4 4 4 8 6 4 4 4 1 5 13 12 9 16 25 27 29 31 28 18 6 4 18 34 36 32 35 37 37 38 37 33 33 34 33 33 34 35 36 36 35 34 33 33 34 35 37 39 39 39 40 39 38 38 37 36 35 34 33 32 31 31 31 30 30 30 29 29 27 25 23 22 19 18
6 4 4 3 2 2 3 2 3 3 4 4 5 5 11 14 7 5 2 3 2 10 23 20 15 19 23 25 30 27 17 9 7 17 33 40 36 37 43 42 38 38 36 34 34 33 33 33 34 35 35 35 35 34 32 34 35 36 37 39 39 40 40 39 38 37 36 35 34 32 31 30 29 29 29 28 28 29 28 27 26 24 21 20 19 20
5 4 3 3 2 1 3 1 3 4 5 4 4 7 15 15 5 1 5 7 9 22 29 24 22 24 22 24 24 15 6 4 11 26 40 40 35 39 43 40 38 38 37 35 34 33 33 33 34 36 35 35 35 33 33 35 36 37 38 38 39 39 39 38 37 36 35 34 32 31 29 29 28 27 26 26 27 26 25 25 25 22 20 20 20 21
2 2 2 0 3 3 3 3 4 5 5 3 5 11 16 12 4 4 7 11 18 30 30 23 24 24 22 22 19 12 10 15 21 31 37 35 35 40 40 37 37 37 36 35 34 33 33 33 34 35 34 34 33 33 33 35 36 37 38 37 38 38 37 36 35 34 33 32 31 29 28 27 26 26 25 25 24 23 22 22 21 20 20 20 20 22
1 1 1 0 2 2 3 4 4 5 4 2 6 9 10 8 4 3 11 18 23 28 27 24 25 23 22 22 20 19 23 26 28 31 33 33 36 38 38 38 38 37 37 35 33 32 33 33 34 34 33 32 32 32 33 34 36 37 37 37 37 37 36 35 34 32 31 30 29 27 26 26 25 25 24 24 23 22 21 20 19 19 20 20 20 21
2 1 3 3 2 1 1 1 4 4 4 2 6 4 4 3 5 9 15 21 24 23 24 25 25 22 23 23 22 23 27 29 31 32 32 33 34 35 36 37 37 38 38 36 34 33 32 33 34 34 33 32 31 31 32 34 35 36 35 36 36 35 35 34 33 31 30 28 27 26 25 24 24 23 23 23 22 21 20 19 18 18 19 20 21 22
3 3 2 3 2 1 2 2 2 2 1 5 8 4 3 7 11 11 13 19 22 22 23 25 25 24 23 23 24 25 28 30 32 32 32 34 34 34 35 35 36 37 37 36 35 33 31 33 34 33 32 31 30 30 31 32 34 35 34 34 35 34 35 34 32 31 29 27 26 26 24 23 23 22 22 21 20 19 19 19 19 19 19 19 21 24
6 7 3 3 4 3 4 8 10 13 15 13 11 10 11 12 13 13 14 18 22 22 22 24 26 26 23 23 24 26 27 29 31 31 32 34 33 33 34 35 35 36 36 35 34 32 31 32 33 33 32 30 29 29 30 30 32 33 33 33 34 34 35 34 32 30 29 27 26 25 24 23 22 22 21 20 20 19 18 18 19 20 20 20 21 25
7 7 4 1 3 6 11 17 21 22 21 17 14 14 15 14 13 16 19 20 20 22 23 25 26 25 24 23 24 25 27 28 29 29 31 32 32 32 34 35 35 35 34 34 33 32 32 32 32 32 32 30 28 28 29 29 29 31 32 33 33 33 34 33 32 31 28 27 25 24 24 24 23 22 22 20 19 17 16 16 18 20 21 22 22 24
5 8 6 2 1 3 6 8 10 10 14 16 15 15 14 13 15 19 21 21 21 22 24 24 24 24 24 23 23 24 26 26 27 28 29 30 31 32 33 34 35 35 34 33 31 30 31 32 32 32 31 30 29 29 29 29 28 28 30 31 31 32 32 32 32 31 28 26 25 25 24 24 24 24 23 21 20 18 15 14 16 19 22 22 21 23
4 8 6 3 3 4 6 8 10 15 20 19 16 14 13 14 18 20 20 21 22 23 24 24 23 24 24 23 22 23 24 24 25 26 28 28 30 30 31 33 34 34 34 33 31 29 29 30 31 30 30 30 30 29 29 29 28 28 29 29 30 31 31 31 31 30 28 26 25 25 24 24 25 25 24 22 21 20 18 17 17 19 21 20 19 21
7 7 4 3 4 6 11 13 14 15 15 12 11 13 14 16 20 20 20 20 22 23 24 24 23 23 23 22 21 21 23 23 22 24 26 27 28 29 30 31 32 33 33 33 32 30 29 29 29 29 29 29 30 30 30 28 28 28 28 28 29 30 30 30 29 28 27 26 25 24 24 24 24 25 24 23 20 18 16 16 17 20 20 18 15 15
8 4 3 3 2 5 7 7 5 4 7 10 13 14 16 18 20 19 18 19 21 22 23 23 24 23 20 19 18 20 21 22 21 22 24 25 25 26 28 29 30 31 31 32 31 30 29 28 28 29 29 29 30 30 30 28 27 27 27 27 28 28 30 30 29 28 27 26 25 24 24 24 24 23 23 23 22 19 15 12 13 16 19 18 14 10
14 10 8 7 6 8 9 8 7 6 10 14 15 15 17 19 19 18 17 19 20 21 22 22 23 23 20 17 16 18 20 21 21 22 23 23 23 24 25 26 28 30 30 30 30 29 29 28 28 28 29 29 30 30 29 28 27 27 26 26 26 27 28 29 30 29 28 26 25 24 23 23 24 23 22 22 22 22 20 16 13 14 15 16 15 11
Wind_Direction
33 43 34 354 321 316 316 292 216 228 213 272 288 290 291 295 306 298 288 309 5 342 288 294 313 341 353 335 2 82 144 141 142 141 124 127 126 109 93 75 57 41 25 14 13 9 4 3 360 359 358 357 357 356 355 353 350 347 343 340 339 339 339 339 338 337 334 328 321 316 315 314 313 312 310 307 305 303 301 297 292 288 284 282 280 280
41 51 8 306 285 287 307 289 178 87 341 301 309 314 310 305 312 311 280 294 12 0 306 307 349 349 343 333 9 97 123 123 128 124 109 112 110 99 84 62 40 22 9 6 5 359 355 354 353 353 353 354 353 351 351 348 344 340 336 334 333 334 336 337 337 338 337 335 329 321 318 316 315 316 314 312 309 304 299 296 291 286 283 280 278 276
42 47 333 304 285 299 54 77 56 36 360 318 324 320 319 329 324 322 312 292 357 350 300 318 357 321 318 339 36 78 100 95 96 98 96 98 92 81 63 37 18 6 358 356 353 349 348 347 348 349 349 349 347 346 345 341 337 333 330 328 326 329 333 336 337 337 337 337 333 325 320 319 318 319 319 316 313 308 300 294 289 285 281 277 275 274
46 7 323 311 338 13 28 44 29 16 18 329 330 328 314 331 338 322 317 320 322 285 276 326 336 287 38 41 61 65 93 89 82 85 87 86 79 64 38 14 1 353 345 342 341 341 342 341 343 344 344 344 342 341 340 337 333 329 327 324 321 322 326 331 335 337 337 337 336 330 326 325 323 321 322 319 314 311 306 298 291 285 280 275 272 272
100 297 321 322 12 37 10 17 24 2 358 328 298 284 310 328 326 302 304 318 316 289 314 350 321 280 146 231 166 108 93 82 75 78 77 72 58 31 11 359 349 341 332 329 331 334 335 335 336 336 337 337 335 335 334 332 329 325 323 320 315 314 316 323 331 334 335 335 334 333 331 329 327 325 326 326 324 322 319 312 304 296 288 280 273 271
70 320 348 343 3 35 27 11 16 357 348 334 279 247 319 323 310 299 307 328 334 326 37 29 340 317 254 228 218 158 89 75 66 66 66 56 29 360 351 346 339 334 326 321 321 324 327 328 327 327 329 328 327 329 329 326 324 320 317 313 307 305 306 314 324 329 330 329 329 329 330 330 331 331 332 334 334 332 330 324 316 307 300 290 279 272
354 358 18 31 9 26 35 3 351 10 357 338 308 285 323 316 304 304 318 347 339 308 334 68 30 304 323 282 234 148 86 70 59 56 56 39 4 343 338 334 331 330 327 321 318 318 318 319 319 319 321 321 320 324 324 320 318 314 310 305 300 298 300 305 314 321 324 324 325 325 326 327 327 328 330 332 333 333 332 328 321 314 307 298 286 276
352 1 9 29 21 24 27 350 339 19 5 323 327 345 326 314 305 303 318 359 279 304 334 56 105 280 307 329 316 98 84 75 67 55 42 4 340 334 332 327 324 324 325 322 317 315 313 312 314 314 315 316 316 318 319 316 314 310 304 297 294 293 295 299 306 314 319 320 321 321 321 321 321 322 323 325 327 328 329 328 325 320 311 301 290 279
347 7 355 9 23 24 358 320 315 342 338 297 323 333 310 303 297 293 312 258 263 344 333 330 33 313 305 8 53 76 73 63 57 36 355 334 329 331 332 328 323 321 324 323 318 315 312 312 315 316 316 316 314 314 314 315 314 309 301 293 291 292 294 295 299 307 314 316 317 317 316 316 316 317 318 319 320 322 324 325 325 323 316 305 292 281
313 332 320 88 60 20 295 297 309 337 323 303 317 323 306 306 303 309 356 327 359 18 316 309 19 338 319 20 45 58 65 52 36 336 315 323 328 333 335 333 327 324 326 327 324 320 317 318 321 322 321 318 316 315 314 314 315 311 304 296 291 293 293 289 293 303 310 312 312 311 311 310 311 312 312 313 315 318 320 320 322 322 315 302 294 288
312 270 266 106 93 288 261 284 292 285 309 312 323 338 332 327 334 11 14 36 27 357 281 297 344 330 319 36 41 48 98 152 224 311 319 329 340 341 339 337 333 330 330 329 327 324 325 327 328 326 323 320 318 318 315 315 316 314 309 300 291 292 289 284 294 307 308 307 304 302 302 302 303 305 307 309 312 314 316 317 318 318 308 292 293 299
347 61 12 84 100 336 281 288 288 272 320 338 347 352 346 333 333 354 358 37 28 319 290 322 334 328 309 26 78 143 194 193 225 330 337 341 344 342 341 340 338 334 331 331 332 334 335 332 328 326 325 325 325 325 322 320 319 318 316 307 297 292 284 284 302 310 305 300 293 291 293 295 298 301 304 307 310 312 313 313 314 312 299 286 290 293
349 195 330 304 126 18 8 351 344 340 359 7 360 4 358 338 339 345 346 359 344 324 326 324 324 330 330 87 144 189 214 216 253 319 346 346 343 342 341 339 337 335 334 338 341 340 336 331 331 333 334 334 332 329 327 325 323 322 320 315 307 298 288 294 309 307 299 290 283 285 289 293 298 301 304 308 310 311 311 310 310 304 289 283 282 273
333 280 352 21 18 23 32 14 344 339 352 355 356 23 11 342 336 328 330 340 323 318 322 319 307 311 348 134 176 210 222 245 313 355 359 353 349 343 340 337 335 336 340 345 342 338 337 338 341 341 340 339 337 335 333 332 333 331 329 325 318 308 301 307 310 300 287 278 277 285 293 298 303 307 309 310 310 309 309 307 302 294 283 280 276 265
5 314 351 36 328 1 31 19 290 279 307 319 268 70 27 351 316 309 322 335 322 311 317 339 50 310 328 136 186 228 246 324 359 7 359 353 348 343 339 336 336 340 346 344 341 341 344 346 345 343 345 346 345 344 343 343 346 343 339 333 326 319 314 310 303 289 278 278 286 296 302 307 311 312 312 310 309 307 306 303 295 287 279 272 270 268
43 271 274 357 320 348 16 349 312 318 317 265 172 83 8 333 300 290 311 308 305 304 308 342 61 298 333 131 199 247 285 353 4 2 357 350 345 344 341 338 340 347 345 341 342 347 349 348 348 350 351 347 344 344 343 341 339 337 334 330 325 320 312 303 292 289 294 300 306 310 312 314 314 313 311 308 307 306 303 300 292 283 275 268 270 274
27 271 280 336 340 101 6 341 1 33 344 322 15 1 305 303 212 340 320 304 301 310 303 310 326 333 32 178 231 282 324 355 3 358 353 347 345 345 340 339 348 347 342 342 347 349 349 350 350 348 343 338 335 334 332 330 329 330 330 325 320 316 308 304 305 309 314 316 317 317 315 315 313 311 310 307 307 307 304 299 293 287 281 274 274 275
226 281 296 346 334 304 343 350 52 64 30 15 355 331 297 267 129 80 325 318 325 321 310 330 329 333 352 317 309 346 348 355 357 351 347 346 348 343 338 345 350 343 340 345 347 347 348 348 342 336 333 331 331 331 330 330 332 335 335 328 322 326 327 325 324 323 322 321 319 317 314 313 312 310 309 307 307 309 304 296 292 290 289 285 280 274
151 296 303 281 278 310 340 21 53 41 52 68 6 339 344 351 16 22 332 335 337 322 310 327 328 330 345 333 341 353 355 353 348 347 346 346 346 341 340 351 347 340 343 348 347 347 344 339 335 333 333 334 335 336 336 335 334 333 333 332 332 334 330 327 326 325 323 320 318 316 314 313 313 311 310 308 307 307 300 293 294 293 290 289 285 279
160 322 291 267 309 322 343 53 3 340 29 77 67 11 24 58 339 331 110 25 343 314 308 321 326 333 341 332 352 359 358 351 346 346 344 342 342 341 344 348 343 341 351 349 344 340 336 334 336 338 340 342 341 339 336 334 331 327 326 330 330 327 324 323 324 324 321 318 317 315 314 314 313 311 311 309 307 305 300 297 298 296 292 289 286 282
327 131 258 283 324 340 346 11 9 1 350 14 42 16 8 34 325 316 342 98 11 311 313 318 315 322 345 23 10 4 356 351 349 342 336 337 339 340 343 344 341 346 354 348 341 337 334 336 342 344 344 344 342 337 336 336 335 330 329 333 333 330 330 329 327 325 322 319 318 317 316 316 314 310 310 308 306 303 301 300 298 296 294 292 289 286
334 152 249 299 332 346 321 293 84 95 75 46 53 34 9 21 5 346 337 17 31 307 287 299 305 308 341 46 19 9 357 351 345 336 331 336 338 339 341 341 343 349 351 347 340 336 335 337 343 344 342 341 339 336 337 338 337 336 336 339 339 336 334 331 326 325 325 322 321 320 318 317 314 311 310 309 307 305 302 300 298 296 295 294 292 289
168 126 242 278 289 281 270 115 123 120 106 89 78 66 53 64 57 29 311 316 338 304 280 292 296 290 37 34 15 6 353 344 339 334 333 336 339 340 340 341 347 348 345 344 339 335 335 337 340 342 340 339 339 339 341 341 341 341 340 339 337 333 330 329 328 327 327 326 323 322 321 319 316 313 311 311 310 308 306 305 304 302 299 297 296 292
145 66 341 283 263 256 277 56 133 144 96 69 63 52 78 105 128 202 248 297 306 307 319 309 296 296 3 13 4 355 345 339 336 336 338 338 339 341 341 343 348 344 341 343 342 339 339 341 341 340 340 342 343 343 342 340 337 336 336 336 334 331 330 332 333 331 330 328 326 324 322 320 317 313 310 310 310 309 309 311 312 310 306 302 298 291
343 37 1 343 335 335 352 1 320 300 16 53 89 39 61 56 328 279 252 311 269 308 325 317 303 305 330 354 354 347 340 336 336 339 341 341 340 340 343 346 345 342 341 344 346 345 342 342 342 340 341 344 344 340 338 336 335 333 333 335 336 335 334 335 334 332 331 329 327 325 324 321 319 316 312 311 312 314 316 317 316 314 310 303 295 289
14 138 76 52 356 329 323 315 309 318 342 40 98 27 15 8 347 331 327 342 332 320 319 306 295 304 321 340 344 340 339 336 337 339 340 342 341 340 346 349 345 343 344 345 347 347 342 342 343 342 342 342 340 338 336 336 337 337 335 335 337 337 335 335 334 333 331 329 328 327 325 324 322 320 318 316 315 317 318 318 315 312 307 300 294 291
98 123 151 146 192 250 262 273 288 310 317 315 21 23 351 337 341 355 350 333 322 318 313 291 295 308 320 333 337 338 340 337 337 339 338 339 340 342 348 348 345 344 343 343 343 342 341 342 343 345 344 341 338 337 337 338 338 338 337 337 338 337 336 336 334 333 332 330 329 328 327 326 324 322 322 320 318 317 315 314 311 307 303 298 296 295
100 338 246 181 217 240 253 272 284 298 295 292 24 26 310 298 323 14 332 297 314 325 315 312 318 316 316 326 336 336 339 338 336 338 337 335 337 342 345 344 345 346 344 342 341 341 343 344 344 343 340 339 339 339 339 339 338 337 337 338 338 337 337 336 334 333 333 332 332 330 328 328 326 324 323 322 320 319 318 316 313 310 307 304 301 301
111 280 228 191 254 263 263 270 275 280 274 242 87 349 317 331 340 338 290 284 314 314 295 308 322 316 310 325 337 335 336 334 328 330 334 334 335 342 344 342 346 347 345 343 342 342 343 343 342 341 339 339 341 341 339 339 338 337 338 338 337 336 337 337 336 336 335 335 334 332 330 330 331 330 331 330 329 329 329 328 325 321 319 316 314 312
108 250 230 213 282 280 274 271 264 250 243 146 104 297 319 319 294 278 272 288 306 291 285 304 312 304 313 335 333 328 330 331 328 329 334 338 341 345 345 345 346 345 344 343 341 341 343 342 340 339 340 342 343 341 339 339 338 337 337 338 338 338 338 339 340 340 338 337 339 339 338 339 339 339 339 340 341 342 341 340 337 334 332 329 326 323
43 306 284 90 309 286 272 269 263 219 196 173 179 244 280 289 287 295 302 309 309 294 292 311 314 310 330 337 328 327 331 333 334 334 336 340 345 346 346 346 344 343 343 341 340 340 342 341 338 339 342 345 343 340 339 338 337 336 337 338 340 340 341 343 343 342 343 344 346 347 346 345 344 344 345 346 348 348 347 346 343 341 339 337 334 330
54 334 340 63 348 282 265 307 309 304 134 148 219 275 307 322 318 304 295 305 300 292 304 326 323 318 329 332 329 331 334 335 333 331 332 337 346 349 348 344 342 342 342 339 339 340 341 340 337 338 342 344 342 340 340 339 337 337 338 339 341 343 344 345 346 346 348 351 351 350 349 348 348 348 349 351 351 351 350 349 347 345 344 341 339 337
111 106 331 50 312 284 324 329 310 318 74 82 264 259 324 333 321 311 318 324 310 263 353 320 305 312 326 332 330 328 332 334 328 323 324 335 348 349 345 341 339 339 338 337 337 338 339 339 337 338 341 343 342 341 341 340 338 337 338 339 342 345 346 347 350 350 350 353 353 352 352 351 349 349 351 353 353 352 353 352 351 350 347 345 345 344
115 114 311 74 272 295 320 320 309 338 25 337 201 157 17 340 324 314 319 320 256 138 178 271 299 323 328 327 321 318 321 321 319 317 317 339 350 346 341 339 339 336 335 336 337 336 338 339 338 338 340 342 342 343 343 342 341 340 340 341 343 346 348 349 351 351 352 354 354 354 353 352 350 350 352 354 355 355 356 355 355 355 352 351 352 349
90 106 124 132 192 278 316 339 350 0 338 239 177 143 352 316 267 288 309 296 157 77 335 326 328 329 321 314 312 316 317 316 320 320 311 341 348 343 337 338 338 335 335 336 336 335 338 340 338 338 340 342 344 346 345 344 344 344 343 344 346 348 350 350 351 352 353 354 354 355 354 352 351 352 353 355 356 358 358 357 357 358 356 356 358 357
141 134 116 149 206 294 345 15 360 310 259 167 205 290 327 314 309 329 335 341 144 21 351 338 325 324 326 321 318 326 325 321 320 314 289 337 346 345 340 339 337 334 335 336 335 335 337 340 338 338 340 343 346 347 346 345 347 346 343 345 348 350 351 351 352 353 354 354 355 355 355 353 352 352 354 356 356 357 359 359 359 358 357 358 3 4
141 121 47 337 345 8 334 262 247 291 336 13 284 274 295 308 322 332 321 297 124 36 3 334 316 330 336 332 333 338 334 327 318 242 302 336 342 342 338 336 333 331 335 336 335 336 338 339 338 340 343 345 347 348 346 347 349 346 344 346 349 350 351 351 351 352 353 353 354 354 355 355 353 352 354 355 355 356 358 358 358 358 357 359 5 10
91 82 99 353 353 66 18 310 311 330 323 266 243 254 288 299 279 221 241 276 219 16 0 348 327 337 341 337 338 342 341 339 336 312 328 334 337 334 332 332 331 332 336 337 336 338 341 340 339 343 346 346 347 348 348 350 350 345 344 347 349 350 350 350 351 351 351 352 353 353 354 354 354 354 354 354 354 356 357 358 357 356 359 2 7 12
44 40 98 90 1 63 68 341 293 285 276 235 230 285 326 320 288 183 200 274 252 353 356 355 343 340 342 336 336 341 349 352 329 319 326 331 331 328 329 332 333 335 338 339 339 340 340 339 341 344 347 348 347 348 351 352 350 346 345 348 349 349 349 349 349 349 348 349 350 351 352 354 355 356 355 354 354 355 356 356 355 356 2 7 9 11
25 13 44 42 312 188 136 188 241 248 251 228 226 302 326 321 299 80 343 323 344 349 348 347 340 337 337 333 334 342 352 312 299 310 320 325 324 326 330 332 333 336 340 341 342 342 340 340 342 344 347 349 348 349 353 353 349 347 346 347 348 348 347 346 346 346 346 347 348 350 352 354 356 356 356 355 354 355 355 355 355 358 6 10 11 12
359 344 10 37 227 205 182 219 264 261 248 261 309 322 329 329 359 34 328 309 330 335 333 335 335 331 330 329 327 316 294 293 296 304 314 320 322 327 333 334 333 337 342 342 343 343 342 342 343 345 347 350 348 350 354 353 348 346 346 347 348 347 345 344 345 345 346 346 348 350 352 355 356 356 356 356 356 356 356 357 359 3 8 13 13 12
321 318 336 281 223 221 186 203 276 277 227 259 321 330 348 359 6 315 295 299 316 323 322 326 329 326 325 323 315 306 303 307 309 311 317 322 324 329 335 337 336 339 343 343 344 345 343 342 343 345 348 350 350 351 354 352 347 346 347 347 347 345 344 345 346 346 346 346 348 350 352 355 356 356 357 358 359 358 357 360 6 8 11 14 13 10
187 195 297 271 211 331 332 292 315 292 216 276 334 346 43 13 291 283 295 304 312 318 318 321 324 324 323 319 314 313 313 315 319 320 321 324 327 332 337 339 339 340 343 345 345 345 344 342 342 344 347 351 351 352 354 352 347 346 347 347 346 344 344 346 347 347 346 347 348 350 353 356 356 358 360 360 0 360 358 2 10 13 12 12 10 8
192 170 261 264 191 79 336 243 242 258 279 354 342 305 274 295 291 291 301 307 315 320 320 320 323 324 322 319 318 318 319 320 323 324 324 326 331 335 338 341 342 342 344 345 344 344 345 343 342 344 346 350 352 353 355 353 347 345 346 346 345 345 345 346 348 347 348 349 349 350 354 357 358 360 3 4 3 2 0 3 12 15 12 10 9 8
210 188 200 241 215 214 234 239 262 290 306 316 312 295 295 299 297 303 309 310 316 319 320 322 324 325 324 323 320 319 320 323 325 326 326 328 333 337 340 342 344 343 345 346 344 344 345 343 342 343 345 350 353 353 355 355 350 346 346 346 346 346 346 347 348 349 350 351 350 350 353 356 359 2 5 8 8 7 5 4 9 13 12 10 9 9
215 191 172 190 243 274 274 262 263 274 284 290 296 300 302 298 298 308 313 313 316 320 322 325 326 326 327 325 321 320 322 324 326 328 329 331 334 338 341 342 344 345 346 346 346 345 344 344 344 344 345 350 354 354 355 356 353 348 347 347 348 348 348 347 348 350 352 352 352 353 353 354 357 0 5 11 14 15 12 6 5 10 13 11 8 7
216 187 188 203 257 308 289 249 230 253 280 292 296 292 288 289 296 304 310 315 320 322 323 325 328 329 328 324 320 320 323 326 327 329 333 335 336 339 342 343 344 346 346 347 347 346 344 345 345 344 345 349 353 355 356 355 354 351 349 348 349 349 349 349 349 350 353 354 354 355 354 354 356 359 2 8 13 17 18 12 9 11 12 9 6 5
173 176 197 220 191 219 260 257 259 279 290 293 290 280 276 286 296 303 311 318 321 322 323 327 331 330 326 323 320 318 322 328 329 329 334 338 338 341 343 344 345 346 346 347 347 347 347 346 344 344 346 348 352 356 356 355 354 352 350 351 351 350 350 350 351 351 353 356 356 355 355 356 358 359 0 4 10 15 15 12 13 14 10 5 3 2
148 165 195 201 209 253 272 272 276 287 289 278 272 276 282 291 299 305 312 317 319 321 323 327 330 329 325 322 318 316 321 330 332 331 335 339 340 341 344 345 346 346 346 346 348 349 349 347 345 345 347 349 353 356 356 355 354 353 353 353 353 352 351 350 352 353 355 356 357 356 356 358 360 0 360 1 7 17 22 19 13 9 4 0 359 358
154 175 178 158 247 271 258 243 244 276 282 275 278 284 288 295 301 303 308 315 318 320 323 326 328 328 325 320 317 317 322 330 335 336 338 341 342 342 344 346 347 346 346 347 348 349 350 350 348 348 349 351 354 356 356 356 356 355 356 356 355 354 353 351 352 355 356 356 357 357 356 357 359 360 1 2 4 11 25 33 23 11 2 357 356 351
201 211 189 181 231 256 254 251 249 255 271 282 289 288 289 295 300 300 306 315 317 318 323 326 325 326 327 324 321 321 324 331 337 339 341 345 344 343 345 347 346 346 347 348 348 350 352 353 353 352 352 354 356 356 356 356 357 356 357 359 358 357 355 355 354 354 354 354 356 358 357 356 357 358 1 5 4 1 2 5 9 14 11 3 0 360